FW7042 Weather Reports


Display with metric or nautical units.
time (UTC)temp
F
wind
direction
speed
MPH
gust
MPH
rain 1hr
in
rain 24hr
in
rain mn
in
humidity
%
barometer
mb
20260906213538 96 145 4.0 5.0 0.00 0.00 0.00 30 1015.6
20260906213032 95 137 3.0 6.0 0.00 0.00 0.00 30 1015.7
20260906212526 95 146 5.0 9.0 0.00 0.00 0.00 31 1015.8
20260906212022 95 199 1.0 2.0 0.00 0.00 0.00 31 1016.0
20260906211516 98 222 1.0 2.0 0.00 0.00 0.00 29 1016.1
20260906211011 96 149 3.0 5.0 0.00 0.00 0.00 30 1016.5
20260906210507 96 110 1.0 2.0 0.00 0.00 0.00 31 1016.2
20260906210006 98 191 3.0 7.0 0.00 0.00 0.00 30 1016.5
20260906205502 99 163 3.0 3.0 0.00 0.00 0.00 29 1016.3
20260906204958 99 265 3.0 5.0 0.00 0.00 0.00 29 1016.6
20260906204457 98 196 3.0 3.0 0.00 0.00 0.00 30 1016.5
20260906203956 97 263 2.0 2.0 0.00 0.00 0.00 31 1016.7
20260906203452 96 133 6.0 7.0 0.00 0.00 0.00 31 1016.7
20260906202949 96 227 3.0 5.0 0.00 0.00 0.00 30 1016.5
20260906202442 96 134 4.0 5.0 0.00 0.00 0.00 31 1016.9
20260906201937 95 93 5.0 7.0 0.00 0.00 0.00 31 1016.7
20260906201432 96 181 3.0 3.0 0.00 0.00 0.00 31 1016.8
20260906200927 95 219 0.0 1.0 0.00 0.00 0.00 30 1016.8
20260906200424 95 202 5.0 7.0 0.00 0.00 0.00 32 1017.2
20260906195923 95 108 5.0 6.0 0.00 0.00 0.00 32 1017.1
20260906195420 95 179 2.0 3.0 0.00 0.00 0.00 32 1017.2
20260906194916 93 127 5.0 7.0 0.00 0.00 0.00 33 1017.1
20260906194411 94 99 4.0 5.0 0.00 0.00 0.00 34 1017.1
20260906193906 95 158 3.0 3.0 0.00 0.00 0.00 33 1017.3
20260906193401 94 138 0.0 2.0 0.00 0.00 0.00 33 1017.1
20260906192857 95 225 1.0 2.0 0.00 0.00 0.00 32 1017.3
20260906192356 95 227 3.0 3.0 0.00 0.00 0.00 31 1017.4
20260906191856 94 126 7.0 9.0 0.00 0.00 0.00 32 1017.4
20260906191350 95 78 6.0 7.0 0.00 0.00 0.00 32 1017.6
20260906190850 94 176 5.0 6.0 0.00 0.00 0.00 32 1017.8
20260906190344 94 195 3.0 3.0 0.00 0.00 0.00 32 1017.7
20260906185839 95 118 5.0 8.0 0.00 0.00 0.00 32 1017.8
20260906185338 95 162 3.0 3.0 0.00 0.00 0.00 32 1018.0
20260906184837 95 162 5.0 6.0 0.00 0.00 0.00 31 1018.0
20260906184333 93 227 3.0 5.0 0.00 0.00 0.00 33 1018.0
20260906183828 94 134 4.0 7.0 0.00 0.00 0.00 34 1018.0
20260906183324 93 55 3.0 3.0 0.00 0.00 0.00 34 1017.8
20260906182819 94 234 3.0 5.0 0.00 0.00 0.00 34 1018.2
20260906182314 93 146 5.0 6.0 0.00 0.00 0.00 34 1018.1
20260906181809 94 108 9.0 11.0 0.00 0.00 0.00 33 1018.4
20260906181305 94 106 4.0 5.0 0.00 0.00 0.00 35 1018.3
20260906180800 94 99 4.0 5.0 0.00 0.00 0.00 34 1018.4
20260906180255 94 211 3.0 3.0 0.00 0.00 0.00 34 1018.7
20260906175752 93 189 3.0 5.0 0.00 0.00 0.00 35 1018.5
20260906175249 94 34 5.0 8.0 0.00 0.00 0.00 35 1018.8
20260906174746 93 82 5.0 7.0 0.00 0.00 0.00 35 1018.9
20260906174246 93 132 2.0 2.0 0.00 0.00 0.00 36 1018.5
20260906173747 93 108 5.0 7.0 0.00 0.00 0.00 35 1018.7
20260906173243 92 69 6.0 8.0 0.00 0.00 0.00 36 1018.9
20260906172741 93 137 3.0 5.0 0.00 0.00 0.00 37 1018.9
20260906172237 93 119 3.0 8.0 0.00 0.00 0.00 36 1018.9
20260906171732 93 222 2.0 2.0 0.00 0.00 0.00 36 1019.0
20260906171228 91 224 5.0 6.0 0.00 0.00 0.00 38 1019.0
20260906170724 92 151 2.0 2.0 0.00 0.00 0.00 39 1018.8
20260906170218 93 215 5.0 7.0 0.00 0.00 0.00 37 1018.9
20260906165715 93 158 1.0 2.0 0.00 0.00 0.00 37 1018.9
20260906165209 93 127 2.0 3.0 0.00 0.00 0.00 38 1018.8
20260906164709 93 104 5.0 6.0 0.00 0.00 0.00 37 1019.3
20260906164204 93 10 2.0 5.0 0.00 0.00 0.00 38 1019.0
20260906163700 93 191 0.0 0.0 0.00 0.00 0.00 39 1019.1
20260906163156 93 214 1.0 1.0 0.00 0.00 0.00 38 1019.2
20260906162653 93 248 1.0 2.0 0.00 0.00 0.00 39 1019.0
20260906162152 92 206 0.0 1.0 0.00 0.00 0.00 41 1019.1
20260906161647 92 141 3.0 3.0 0.00 0.00 0.00 40 1019.1
20260906161146 92 158 1.0 2.0 0.00 0.00 0.00 40 1019.0
20260906160646 93 138 1.0 2.0 0.00 0.00 0.00 40 1018.9
20260906160144 91 221 0.0 0.0 0.00 0.00 0.00 41 1019.1
20260906155641 91 209 1.0 1.0 0.00 0.00 0.00 43 1018.9
20260906155138 90 190 0.0 1.0 0.00 0.00 0.00 43 1018.9
20260906154633 90 173 3.0 5.0 0.00 0.00 0.00 43 1019.0
20260906154132 90 181 1.0 2.0 0.00 0.00 0.00 45 1018.8
20260906153631 90 138 3.0 3.0 0.00 0.00 0.00 44 1018.8
20260906153126 89 215 2.0 2.0 0.00 0.00 0.00 46 1018.8
20260906152621 90 205 0.0 0.0 0.00 0.00 0.00 45 1018.7
20260906152121 88 202 0.0 0.0 0.00 0.00 0.00 47 1018.8
20260906151615 88 194 1.0 2.0 0.00 0.00 0.00 47 1018.8
20260906151112 87 213 2.0 2.0 0.00 0.00 0.00 49 1019.0
20260906150607 87 176 2.0 3.0 0.00 0.00 0.00 49 1018.7
20260906145601 85 162 1.0 1.0 0.00 0.00 0.00 51 1018.9
20260906145055 84 179 1.0 1.0 0.00 0.00 0.00 52 1018.5
20260906144550 84 151 3.0 5.0 0.00 0.00 0.00 52 1018.9
20260906144045 84 168 2.0 3.0 0.00 0.00 0.00 52 1018.5
20260906143540 84 162 3.0 3.0 0.00 0.00 0.00 52 1018.5
20260906143032 84 177 2.0 3.0 0.00 0.00 0.00 52 1018.5
20260906142530 84 166 3.0 3.0 0.00 0.00 0.00 52 1018.7
20260906142027 83 217 2.0 2.0 0.00 0.00 0.00 53 1018.5
20260906141525 82 207 1.0 1.0 0.00 0.00 0.00 54 1018.7
20260906141021 81 222 2.0 2.0 0.00 0.00 0.00 55 1018.5
20260906140514 81 179 2.0 3.0 0.00 0.00 0.00 56 1018.7
20260906140014 81 183 1.0 1.0 0.00 0.00 0.00 56 1018.7
20260906135511 81 150 3.0 3.0 0.00 0.00 0.00 56 1018.7
20260906135007 80 206 0.0 1.0 0.00 0.00 0.00 57 1018.4
20260906134456 79 197 0.0 0.0 0.00 0.00 0.00 58 1018.3
20260906133956 79 187 1.0 2.0 0.00 0.00 0.00 59 1018.2
20260906133453 78 207 0.0 1.0 0.00 0.00 0.00 60 1018.4
20260906132948 78 194 2.0 2.0 0.00 0.00 0.00 61 1018.3
20260906132443 78 190 1.0 1.0 0.00 0.00 0.00 61 1018.1
20260906131938 77 208 0.0 0.0 0.00 0.00 0.00 62 1018.2
20260906131433 76 200 0.0 0.0 0.00 0.00 0.00 64 1018.2
20260906130929 76 167 2.0 3.0 0.00 0.00 0.00 64 1018.2
20260906130428 75 190 0.0 0.0 0.00 0.00 0.00 65 1018.0
20260906125923 75 197 0.0 1.0 0.00 0.00 0.00 66 1018.1
20260906125420 74 197 0.0 0.0 0.00 0.00 0.00 66 1018.0
20260906124919 74 210 1.0 1.0 0.00 0.00 0.00 68 1018.1
20260906124415 73 184 0.0 0.0 0.00 0.00 0.00 69 1018.0
20260906123910 72 203 0.0 0.0 0.00 0.00 0.00 70 1018.0
20260906123410 72 184 0.0 1.0 0.00 0.00 0.00 70 1017.9
20260906122910 72 197 0.0 0.0 0.00 0.00 0.00 70 1017.8
20260906122404 72 213 0.0 0.0 0.00 0.00 0.00 70 1017.8
20260906121902 72 199 0.0 0.0 0.00 0.00 0.00 70 1017.6
20260906121357 73 208 0.0 0.0 0.00 0.00 0.00 69 1017.8
20260906120853 73 213 0.0 0.0 0.00 0.00 0.00 69 1017.6
20260906120348 73 226 1.0 2.0 0.00 0.00 0.00 69 1017.4
20260906115839 73 209 0.0 0.0 0.00 0.00 0.00 68 1017.6
20260906115334 73 211 0.0 0.0 0.00 0.00 0.00 68 1017.6
20260906114833 73 208 0.0 0.0 0.00 0.00 0.00 68 1017.7
20260906114329 73 205 0.0 0.0 0.00 0.00 0.00 67 1017.4
20260906113824 73 206 1.0 2.0 0.00 0.00 0.00 67 1017.3
20260906113323 73 178 1.0 1.0 0.00 0.00 0.00 67 1017.3
20260906112818 74 209 0.0 1.0 0.00 0.00 0.00 66 1017.4
20260906112315 74 228 0.0 1.0 0.00 0.00 0.00 66 1017.2
20260906111814 74 215 3.0 3.0 0.00 0.00 0.00 66 1017.2
20260906111313 74 187 0.0 0.0 0.00 0.00 0.00 66 1017.3
20260906110809 74 212 0.0 0.0 0.00 0.00 0.00 66 1017.1
20260906110305 74 165 2.0 2.0 0.00 0.00 0.00 66 1017.3
20260906105804 74 156 1.0 2.0 0.00 0.00 0.00 65 1017.3
20260906105259 74 196 0.0 0.0 0.00 0.00 0.00 65 1017.2
20260906104755 74 210 0.0 1.0 0.00 0.00 0.00 65 1017.3
20260906104254 74 191 0.0 0.0 0.00 0.00 0.00 65 1017.3
20260906103752 74 214 0.0 0.0 0.00 0.00 0.00 65 1017.2
20260906103251 74 214 0.0 0.0 0.00 0.00 0.00 64 1017.2
20260906102748 75 207 0.0 0.0 0.00 0.00 0.00 64 1017.1
20260906102246 75 206 0.0 0.0 0.00 0.00 0.00 63 1016.8
20260906101742 75 203 0.0 0.0 0.00 0.00 0.00 63 1017.0
20260906101236 75 202 0.0 0.0 0.00 0.00 0.00 63 1017.0
20260906100732 75 206 0.0 0.0 0.00 0.00 0.00 62 1017.0
20260906100231 75 214 0.0 0.0 0.00 0.00 0.00 62 1017.1
20260906095727 75 214 0.0 1.0 0.00 0.00 0.00 62 1016.9
20260906095222 75 198 0.0 0.0 0.00 0.00 0.00 61 1016.7
20260906094721 76 218 0.0 1.0 0.00 0.00 0.00 61 1017.1
20260906094216 76 220 0.0 0.0 0.00 0.00 0.00 60 1017.0
20260906093712 76 202 1.0 1.0 0.00 0.00 0.00 60 1017.0
20260906093208 76 212 2.0 2.0 0.00 0.00 0.00 59 1016.8
20260906092703 76 222 0.0 0.0 0.00 0.00 0.00 59 1016.9
20260906092202 77 159 1.0 3.0 0.00 0.00 0.00 59 1017.0
20260906091658 77 221 0.0 0.0 0.00 0.00 0.00 59 1016.9
20260906091154 77 210 0.0 1.0 0.00 0.00 0.00 58 1016.9
20260906090650 77 210 1.0 2.0 0.00 0.00 0.00 58 1016.5
20260906090149 77 170 1.0 2.0 0.00 0.00 0.00 58 1016.7
20260906085648 77 289 1.0 2.0 0.00 0.00 0.00 57 1016.6
20260906085143 77 220 1.0 1.0 0.00 0.00 0.00 57 1016.7
20260906084638 78 210 1.0 1.0 0.00 0.00 0.00 56 1016.5
20260906084137 78 242 2.0 3.0 0.00 0.00 0.00 56 1016.5
20260906083632 78 207 1.0 1.0 0.00 0.00 0.00 56 1016.6
20260906083127 78 232 1.0 2.0 0.00 0.00 0.00 56 1016.3
20260906082623 78 185 0.0 1.0 0.00 0.00 0.00 55 1016.6
20260906082118 78 192 1.0 1.0 0.00 0.00 0.00 54 1016.6
20260906081614 79 185 1.0 1.0 0.00 0.00 0.00 54 1016.8
20260906081108 79 206 2.0 2.0 0.00 0.00 0.00 53 1016.8
20260906080605 79 151 2.0 2.0 0.00 0.00 0.00 53 1016.7
20260906075555 79 183 3.0 3.0 0.00 0.00 0.00 52 1016.8
20260906075050 79 186 2.0 2.0 0.00 0.00 0.00 52 1016.7
20260906074545 80 176 2.0 2.0 0.00 0.00 0.00 51 1016.7
20260906074043 80 219 1.0 2.0 0.00 0.00 0.00 51 1016.9
20260906073538 80 180 2.0 3.0 0.00 0.00 0.00 51 1016.9
20260906073034 80 175 0.0 0.0 0.00 0.00 0.00 50 1016.9
20260906072529 80 209 1.0 1.0 0.00 0.00 0.00 50 1016.8
20260906072025 81 159 2.0 2.0 0.00 0.00 0.00 50 1016.7
20260906071521 81 137 2.0 3.0 0.00 0.00 0.00 49 1016.8
20260906071016 81 93 3.0 5.0 0.00 0.00 0.00 49 1016.9
20260906070512 81 151 3.0 3.0 0.00 0.00 0.00 48 1016.9
20260906070007 82 158 2.0 3.0 0.00 0.00 0.00 48 1017.1
20260906065501 82 195 2.0 3.0 0.00 0.00 0.00 47 1016.9
20260906064957 82 192 3.0 5.0 0.00 0.00 0.00 47 1016.7
20260906064453 82 164 3.0 3.0 0.00 0.00 0.00 47 1016.9
20260906063948 82 172 5.0 6.0 0.00 0.00 0.00 47 1016.9
20260906063444 82 113 4.0 5.0 0.00 0.00 0.00 46 1016.7
20260906062943 82 193 1.0 2.0 0.00 0.00 0.00 46 1016.9
20260906062439 83 84 3.0 3.0 0.00 0.00 0.00 46 1017.1
20260906061933 83 158 4.0 5.0 0.00 0.00 0.00 46 1017.0
20260906061430 83 187 1.0 2.0 0.00 0.00 0.00 45 1017.1
20260906060924 83 142 3.0 6.0 0.00 0.00 0.00 45 1017.2
20260906060421 83 160 1.0 2.0 0.00 0.00 0.00 45 1017.0
20260906055917 83 194 1.0 2.0 0.00 0.00 0.00 45 1016.8
20260906055413 83 119 2.0 2.0 0.00 0.00 0.00 45 1017.3
20260906054908 83 86 1.0 1.0 0.00 0.00 0.00 45 1017.1
20260906054403 83 168 3.0 5.0 0.00 0.00 0.00 45 1017.1
20260906053859 83 139 3.0 3.0 0.00 0.00 0.00 45 1017.3
20260906053354 83 117 3.0 5.0 0.00 0.00 0.00 45 1017.3
20260906052850 84 159 2.0 2.0 0.00 0.00 0.00 44 1017.3
20260906052346 84 140 5.0 7.0 0.00 0.00 0.00 44 1017.2
20260906051843 84 192 2.0 2.0 0.00 0.00 0.00 44 1017.3
20260906051342 84 161 3.0 5.0 0.00 0.00 0.00 44 1017.1
20260906050839 84 125 3.0 5.0 0.00 0.00 0.00 44 1017.2
20260906050333 84 172 2.0 2.0 0.00 0.00 0.00 44 1017.0
20260906045832 84 191 1.0 2.0 0.00 0.00 0.00 44 1017.3
20260906045326 84 212 1.0 2.0 0.00 0.00 0.00 44 1017.3
20260906044822 84 185 0.0 1.0 0.00 0.00 0.00 44 1017.1
20260906044316 85 169 2.0 3.0 0.00 0.00 0.00 43 1017.1
20260906043812 85 131 3.0 3.0 0.00 0.00 0.00 43 1017.1
20260906043308 85 167 3.0 3.0 0.00 0.00 0.00 42 1017.3
20260906042803 85 138 1.0 2.0 0.00 0.00 0.00 42 1017.2
20260906042306 86 211 1.0 1.0 0.00 0.00 0.00 42 1017.1
20260906041758 86 203 1.0 1.0 0.00 0.00 0.00 42 1017.1
20260906041252 86 118 3.0 3.0 0.00 0.00 0.00 42 1017.0
20260906040748 86 177 3.0 3.0 0.00 0.00 0.00 42 1016.9
20260906040243 86 208 1.0 2.0 0.00 0.00 0.00 41 1016.8
20260906035738 87 119 3.0 3.0 0.00 0.00 0.00 41 1016.9
20260906035234 87 117 2.0 5.0 0.00 0.00 0.00 41 1017.0
20260906034734 87 214 2.0 2.0 0.00 0.00 0.00 41 1017.0
20260906034229 87 148 2.0 2.0 0.00 0.00 0.00 40 1016.9
20260906033724 87 213 2.0 2.0 0.00 0.00 0.00 40 1017.0
20260906033218 88 261 2.0 3.0 0.00 0.00 0.00 39 1016.9
20260906032715 88 201 3.0 3.0 0.00 0.00 0.00 39 1016.6
20260906032209 88 167 3.0 3.0 0.00 0.00 0.00 39 1016.6
20260906031705 88 175 4.0 5.0 0.00 0.00 0.00 39 1016.9
20260906031200 88 216 3.0 3.0 0.00 0.00 0.00 39 1016.5
20260906030659 88 138 5.0 6.0 0.00 0.00 0.00 38 1016.5
20260906030154 88 159 3.0 5.0 0.00 0.00 0.00 38 1016.1
20260906025654 89 117 3.0 5.0 0.00 0.00 0.00 38 1016.2
20260906025148 89 165 3.0 3.0 0.00 0.00 0.00 37 1016.2
20260906024642 89 119 1.0 2.0 0.00 0.00 0.00 37 1016.0
20260906024136 89 119 5.0 7.0 0.00 0.00 0.00 37 1016.0
20260906023633 89 180 1.0 2.0 0.00 0.00 0.00 36 1015.8
20260906023132 89 193 0.0 1.0 0.00 0.00 0.00 36 1015.8
20260906022627 89 220 2.0 3.0 0.00 0.00 0.00 36 1015.8
20260906022123 89 140 1.0 3.0 0.00 0.00 0.00 36 1015.6
20260906021619 90 214 1.0 2.0 0.00 0.00 0.00 36 1015.7
20260906021117 90 176 2.0 3.0 0.00 0.00 0.00 35 1015.6
20260906020617 90 167 1.0 2.0 0.00 0.00 0.00 35 1015.6
20260906020112 90 197 3.0 3.0 0.00 0.00 0.00 35 1015.6
20260906015611 91 105 2.0 5.0 0.00 0.00 0.00 35 1015.1
20260906015105 91 139 3.0 5.0 0.00 0.00 0.00 35 1015.5
20260906014600 91 178 1.0 1.0 0.00 0.00 0.00 34 1015.4
20260906014056 91 133 3.0 5.0 0.00 0.00 0.00 34 1015.0
20260906013551 92 161 2.0 2.0 0.00 0.00 0.00 34 1015.2
20260906013047 92 230 1.0 2.0 0.00 0.00 0.00 33 1015.0
20260906012542 92 178 1.0 2.0 0.00 0.00 0.00 33 1015.0
20260906012041 92 143 5.0 6.0 0.00 0.00 0.00 33 1015.0
20260906011538 92 158 3.0 5.0 0.00 0.00 0.00 33 1015.0
20260906011037 93 121 5.0 6.0 0.00 0.00 0.00 33 1014.7
20260906010532 93 111 5.0 7.0 0.00 0.00 0.00 33 1015.0
20260906010029 93 107 5.0 8.0 0.00 0.00 0.00 32 1015.0
20260906005527 93 115 4.0 8.0 0.00 0.00 0.00 32 1014.5
20260906005027 93 217 3.0 5.0 0.00 0.00 0.00 32 1014.5
20260906004526 94 117 4.0 5.0 0.00 0.00 0.00 32 1014.6
20260906004021 94 111 4.0 5.0 0.00 0.00 0.00 32 1014.7
20260906003516 94 149 5.0 8.0 0.00 0.00 0.00 31 1014.5
20260906003013 95 169 5.0 7.0 0.00 0.00 0.00 31 1014.6
20260906002507 96 132 6.0 8.0 0.00 0.00 0.00 30 1014.5
20260906002002 96 207 2.0 3.0 0.00 0.00 0.00 30 1014.5
20260906001457 96 135 1.0 1.0 0.00 0.00 0.00 30 1014.3
20260906000951 96 159 3.0 3.0 0.00 0.00 0.00 30 1014.4
20260906000442 96 168 5.0 6.0 0.00 0.00 0.00 30 1014.5
20260905235941 96 242 3.0 5.0 0.00 0.00 0.00 29 1014.4
20260905235436 96 112 3.0 5.0 0.00 0.00 0.00 30 1014.4
20260905234931 96 158 5.0 8.0 0.00 0.00 0.00 30 1014.1
20260905234427 96 134 5.0 6.0 0.00 0.00 0.00 30 1014.0
20260905233926 96 155 4.0 6.0 0.00 0.00 0.00 30 1013.8
20260905233422 97 140 2.0 2.0 0.00 0.00 0.00 30 1013.9
20260905232920 97 132 3.0 3.0 0.00 0.00 0.00 29 1014.1
20260905232417 97 128 6.0 7.0 0.00 0.00 0.00 29 1014.0
20260905231906 97 102 3.0 5.0 0.00 0.00 0.00 29 1014.0
20260905231402 97 239 3.0 3.0 0.00 0.00 0.00 28 1014.1
20260905230859 98 88 4.0 7.0 0.00 0.00 0.00 29 1013.9
20260905230356 98 144 3.0 3.0 0.00 0.00 0.00 28 1014.1
20260905225855 98 111 3.0 5.0 0.00 0.00 0.00 29 1014.1
20260905225350 98 174 2.0 2.0 0.00 0.00 0.00 28 1014.0
20260905224845 97 41 4.0 7.0 0.00 0.00 0.00 28 1014.1
20260905224341 98 132 3.0 5.0 0.00 0.00 0.00 29 1014.1
20260905223835 99 133 3.0 5.0 0.00 0.00 0.00 28 1014.0
20260905223333 99 155 5.0 8.0 0.00 0.00 0.00 28 1014.0
20260905222828 99 172 3.0 3.0 0.00 0.00 0.00 29 1014.1
20260905222327 99 93 5.0 7.0 0.00 0.00 0.00 29 1014.1
20260905221824 99 119 3.0 3.0 0.00 0.00 0.00 29 1014.0
20260905221320 99 113 5.0 6.0 0.00 0.00 0.00 29 1014.1
20260905220816 100 212 5.0 6.0 0.00 0.00 0.00 29 1014.1
20260905220312 99 106 4.0 7.0 0.00 0.00 0.00 28 1014.1
20260905215811 100 162 3.0 5.0 0.00 0.00 0.00 28 1014.5
20260905215306 99 193 2.0 2.0 0.00 0.00 0.00 29 1014.4
20260905214802 98 217 3.0 3.0 0.00 0.00 0.00 29 1014.5
20260905214258 98 119 3.0 5.0 0.00 0.00 0.00 30 1014.4